sat.trackr.live / text

‹ back to catalog

STARLINK-31237

NORAD 58855 · 2024-019C

PAYLOAD ACTIVE UNKNOWN

§ Identity

Operator
Country
US
Launch date
2024-01-29
Launch site
AFETR
Launch vehicle
Mass (kg)
RCS (m²)

Purposes: comms

External: N2YO · Heavens-Above · Gunter

§ Orbital elements

Epoch: 2026-09-20T14:13:50.708064Z

Period
94.27 min
Inclination
42.9996°
Eccentricity
0.0000970
Mean motion
15.27573376 rev/d
Perigee alt
482.4 km
Apogee alt
483.7 km
Semi-major
6,861.2 km
B*
2.3978e-5
RAAN
227.9432°
Arg perigee
266.7009°
Mean anomaly
93.3731°
Rev number
14,889

§ Raw data

STARLINK-312371 58855U 24019C   26263.59294801  .00000398  00000+0  23978-4 0  99962 58855  42.9996 227.9432 0000970 266.7009  93.3731 15.27573376148899

JSON: /api/v1/satellites/58855 · /tle

For live sub-satellite position, see the globe view (requires WebGL).

§ Visibility from observer

Set your observer location to see the next 7 days of passes ≥ 10°. The values pass through the URL so the page stays shareable.

No JS? Fill the form by hand. The geolocation button needs JavaScript.